Retour au catalogue

PICOSAT 5

ActifScienceLEO
NORAD 26093·PAYLOAD·🇺🇸 United States

Lancé Jan 27, 2000 depuis Vandenberg Space Force Base

Loading…

Prochains Passages (prochaines 24 heures)

TLE

FraisSource: Space-Track

Époque: Sep 14, 2026, 06:09 UTC

1 26093U 00004L   26257.25686253  .00001680  00000-0  32142-3 0  9993
2 26093 100.2027  66.0056 0022717 315.4247  44.5122 14.65578725405492

Suivez PICOSAT 5 en temps réel avec AllMySat

Download on the App Store